Flims, Switzerland 16 day weather forecast

Slopes altitude range 1100 m - 3000m

Number of lifts: 29 Pistes: 235km

In some cases the lift and piste totals shown are for the ski domain (e.g. Three Valleys) rather than individual resort (e.g. Courchevel)

Overview

The 16 day weather forecast is fully updated 4 times every day.

    • Wed 26 JUN 2019
    • Wed 26
    • 20C 30C
    • Thu 27 JUN 2019
    • Thu 27
    • 21C 29C
    • Fri 28 JUN 2019
    • Fri 28
    • 18C 25C
    • Sat 29 JUN 2019
    • Sat 29
    • 17C 29C
    • Sun 30 JUN 2019
    • Sun 30
    • 19C 28C
    • Mon 01 JUL 2019
    • Mon 01
    • 19C 29C
    • Tue 02 JUL 2019
    • Tue 02
    • 16C 19C
    • Wed 03 JUL 2019
    • Wed 03
    • 15C 20C
    • Thu 04 JUL 2019
    • Thu 04
    • 15C 20C
    • Fri 05 JUL 2019
    • Fri 05
    • 16C 21C
    • Sat 06 JUL 2019
    • Sat 06
    • 8C 12C
    • Sun 07 JUL 2019
    • Sun 07
    • 11C 19C
    • Mon 08 JUL 2019
    • Mon 08
    • 15C 22C
    • Tue 09 JUL 2019
    • Tue 09
    • 16C 20C
    • Wed 10 JUL 2019
    • Wed 10
    • 16C 18C
    • Thu 11 JUL 2019
    • Thu 11
    • 16C 21C

Date:

Time Type 0°C level Temp Chill Snow Cloud Speed Gust Dir Press
3:00 4606m 15°C 15_6 0cm 0% 6mph 8mph 1025mB
6:00 4565m 15°C 15_4 0cm 0% 4mph 5mph 1026mB
9:00 4611m 20°C 20_0 0cm 0% 0mph 1mph 1025mB
12:00 4638m 30°C 30_4 0cm 0% 4mph 4mph 1024mB
15:00 4628m 30°C 30_6 0cm 0% 6mph 6mph 1024mB
18:00 4623m 30°C 30_3 0cm 0% 3mph 4mph 1024mB
21:00 4613m 17°C 17_3 0cm 0% 3mph 4mph 1026mB
0:00 4611m 16°C 16_7 0cm 0% 7mph 8mph 1026mB
3:00 4581m 16°C 16_6 0cm 0% 6mph 7mph 1025mB
6:00 4573m 16°C 16_4 0cm 0% 4mph 4mph 1024mB
9:00 4527m 21°C 21_2 0cm 0% 2mph 3mph 1023mB
12:00 4526m 29°C 29_8 0cm 0% 8mph 11mph 1022mB
15:00 4502m 29°C 29_8 0cm 0% 8mph 10mph 1022mB
18:00 4566m 29°C 29_4 0cm 16% 4mph 5mph 1021mB
21:00 4611m 16°C 16_2 0cm 15% 2mph 3mph 1023mB
0:00 4619m 14°C 14_2 0cm 7% 2mph 2mph 1023mB
3:00 4567m 14°C 14_2 0cm 22% 2mph 3mph 1022mB
6:00 4564m 13°C 13_3 0cm 18% 3mph 4mph 1021mB
9:00 4603m 18°C 18_5 0cm 11% 5mph 4mph 1020mB
12:00 4678m 25°C 25_8 0cm 5% 8mph 7mph 1019mB
15:00 4689m 25°C 25_8 0cm 0% 8mph 8mph 1018mB
18:00 4804m 25°C 25_5 0cm 0% 5mph 7mph 1019mB
21:00 4824m 12°C 12_2 0cm 0% 2mph 2mph 1021mB
0:00 4789m 11°C 11_5 0cm 0% 5mph 7mph 1020mB
3:00 4761m 12°C 12_6 0cm 0% 6mph 7mph 1020mB
6:00 4784m 12°C 12_6 0cm 0% 6mph 8mph 1019mB
9:00 4839m 17°C 17_2 0cm 0% 2mph 4mph 1019mB
12:00 4892m 29°C 29_5 0cm 0% 5mph 3mph 1018mB
15:00 4876m 28°C 28_7 0cm 0% 7mph 7mph 1017mB
18:00 4846m 28°C 28_4 0cm 0% 4mph 5mph 1018mB
21:00 4881m 15°C 15_4 0cm 0% 4mph 5mph 1020mB
0:00 4811m 15°C 15_6 0cm 0% 6mph 7mph 1020mB
3:00 4765m 14°C 14_7 0cm 0% 7mph 8mph 1020mB
6:00 4718m 14°C 14_5 0cm 0% 5mph 7mph 1020mB
9:00 4689m 19°C 19_3 0cm 17% 3mph 3mph 1020mB
12:00 4612m 28°C 28_5 0cm 9% 5mph 5mph 1019mB
15:00 4578m 28°C 28_8 0cm 0% 8mph 6mph 1019mB
18:00 4541m 28°C 28_4 0cm 0% 4mph 5mph 1020mB
21:00 4527m 15°C 15_3 0cm 0% 3mph 3mph 1021mB
0:00 4528m 15°C 15_7 0cm 0% 7mph 8mph 1021mB
3:00 4460m 15°C 15_8 0cm 20% 8mph 9mph 1019mB
6:00 4389m 14°C 14_5 0cm 12% 5mph 6mph 1020mB
9:00 4339m 19°C 19_6 0cm 24% 6mph 7mph 1019mB
12:00 4346m 29°C 29_2 0cm 60% 2mph 2mph 1018mB
15:00 4285m 29°C 29_9 0cm 87% 9mph 11mph 1017mB
18:00 4142m 29°C 29_14 0cm 93% 14mph 17mph 1018mB
21:00 4159m 12°C 12_7 0cm 100% 7mph 8mph 1020mB
0:00 4098m 12°C 12_4 0cm 100% 4mph 5mph 1020mB
3:00 4055m 12°C 12_4 0cm 97% 4mph 5mph 1018mB
6:00 4023m 12°C 12_1 0cm 99% 1mph 2mph 1019mB
9:00 4097m 16°C 16_8 0cm 100% 8mph 7mph 1018mB
12:00 4174m 19°C 19_7 0cm 100% 7mph 8mph 1018mB
15:00 4072m 19°C 19_8 0cm 100% 8mph 8mph 1018mB
18:00 4069m 19°C 19_6 0cm 100% 6mph 7mph 1018mB
21:00 4123m 13°C 13_4 0cm 100% 4mph 4mph 1019mB
0:00 4074m 13°C 13_2 0cm 100% 2mph 2mph 1019mB
3:00 3922m 13°C 13_0 0cm 100% 0mph 1mph 1019mB
6:00 3912m 13°C 13_1 0cm 100% 1mph 2mph 1019mB
9:00 3945m 15°C 15_5 0cm 100% 5mph 4mph 1019mB
12:00 4016m 20°C 20_6 0cm 91% 6mph 6mph 1018mB
15:00 3975m 17°C 17_5 0cm 100% 5mph 4mph 1018mB
18:00 4011m 17°C 17_3 0cm 100% 3mph 3mph 1018mB
21:00 4008m 10°C 10_3 0cm 24% 3mph 4mph 1019mB
0:00 3983m 10°C 10_5 0cm 46% 5mph 6mph 1019mB
3:00 3996m 9°C 9_3 0cm 72% 3mph 4mph 1018mB
6:00 4036m 9°C 9_1 0cm 61% 1mph 2mph 1018mB
9:00 3990m 15°C 15_4 0cm 40% 4mph 3mph 1017mB
12:00 4003m 20°C 20_5 0cm 33% 5mph 6mph 1017mB
15:00 3958m 20°C 20_6 0cm 56% 6mph 7mph 1016mB
18:00 4097m 20°C 20_5 0cm 64% 5mph 5mph 1017mB
21:00 4110m 11°C 11_3 0cm 69% 3mph 4mph 1018mB
0:00 4023m 10°C 10_3 0cm 35% 3mph 3mph 1018mB
3:00 3960m 10°C 10_4 0cm 0% 4mph 5mph 1018mB
6:00 4013m 10°C 10_5 0cm 11% 5mph 6mph 1017mB
9:00 3915m 16°C 16_5 0cm 29% 5mph 9mph 1017mB
12:00 4011m 21°C 21_5 0cm 51% 5mph 12mph 1017mB
15:00 4124m 22°C 22_5 0cm 87% 5mph 6mph 1016mB
18:00 3988m 22°C 22_7 0cm 85% 7mph 9mph 1017mB
21:00 4021m 11°C 11_4 0cm 100% 4mph 4mph 1019mB
0:00 3960m 10°C 10_2 0cm 100% 2mph 3mph 1019mB
Afternoon 0.0833333mm 0.3125 3476m 12°C 12_8 0cm 91% 8mph 7mph 1020mB
Morning 0mm 0 3750m 3°C 3_3 0cm 0% 3mph 4mph 1024mB
Afternoon 0mm 0 4386m 19°C 19_5 0cm 0% 5mph 4mph 1020mB
Morning 0mm 0 4440m 8°C 8_2 0cm 71% 2mph 3mph 1021mB
Afternoon 0mm 0 4287m 22°C 22_5 0cm 72% 5mph 6mph 1017mB
Morning 0.0625mm 0.1875 4270m 12°C 12_4 0cm 88% 4mph 5mph 1019mB
Afternoon 0.625mm 1.9375 4300m 20°C 20_5 0cm 87% 5mph 5mph 1017mB
Morning 0.5mm 1.5 4154m 11°C 11_1 0cm 94% 1mph 2mph 1019mB
Afternoon 0.708333mm 2.125 4115m 18°C 18_5 0cm 71% 5mph 6mph 1016mB
Morning 0.0416667mm 0.1875 4004m 10°C 10_2 0cm 55% 2mph 3mph 1017mB
Afternoon 0mm 0.0625 4038m 21°C 21_4 0cm 46% 4mph 5mph 1012mB
Morning 0.0625mm 0.1875 3998m 11°C 11_1 0cm 100% 1mph 2mph 1011mB

16 day outlook at a glance

Forecast issued: 6/26/2019 8:36:41 AM

Chat

Your comments and questions. In a resort? Let us know what it's like!


Characters left 250

For terms and conditions see Readers Comments on the Cookie and privacy policy page.